GW5184 Weather Reports


time (UTC)temp
F
wind
direction
speed
knots
gust
knots
rain 1hr
in
rain 24hr
in
rain mn
in
humidity
%
barometer
mb
20260509102240 86 170 0.0 0.0 0.00 0.00 0.00 77 1008.1
20260509101737 86 198 0.0 0.0 0.00 0.00 0.00 76 1007.9
20260509101233 86 185 0.0 0.0 0.00 0.00 0.00 76 1007.8
20260509100731 86 158 0.0 0.0 0.00 0.00 0.00 75 1007.7
20260509100228 87 145 0.0 0.0 0.00 0.00 0.00 74 1007.6
20260509095724 87 201 0.0 0.0 0.00 0.00 0.00 73 1007.5
20260509095221 87 201 0.0 0.0 0.00 0.00 0.00 73 1007.6
20260509094718 87 203 0.0 0.0 0.00 0.00 0.00 72 1007.3
20260509094215 88 12 0.0 0.0 0.00 0.00 0.00 70 1007.3
20260509093713 88 57 0.0 1.7 0.00 0.00 0.00 69 1007.4
20260509093210 88 165 0.0 0.0 0.00 0.00 0.00 70 1007.3
20260509092708 88 219 0.0 0.0 0.00 0.00 0.00 69 1007.5
20260509092206 88 198 0.0 0.0 0.00 0.00 0.00 67 1007.2
20260509091704 89 145 0.9 0.9 0.00 0.00 0.00 67 1007.2
20260509091159 89 162 0.0 0.0 0.00 0.00 0.00 66 1007.2
20260509090658 89 284 0.0 2.6 0.00 0.00 0.00 66 1007.2
20260509090155 91 140 0.0 0.0 0.00 0.00 0.00 64 1007.1
20260509085652 92 36 0.0 1.7 0.00 0.00 0.00 61 1007.0
20260509085148 92 336 0.0 0.9 0.00 0.00 0.00 60 1007.3
20260509084646 92 149 0.9 1.7 0.00 0.00 0.00 60 1007.2
20260509084142 92 4 0.0 1.7 0.00 0.00 0.00 60 1007.2
20260509083640 92 183 1.7 3.5 0.00 0.00 0.00 60 1007.1
20260509083136 93 162 0.0 2.6 0.00 0.00 0.00 60 1007.0
20260509082634 94 81 0.0 3.5 0.00 0.00 0.00 58 1007.4
20260509082130 94 170 0.0 0.9 0.00 0.00 0.00 58 1007.2
20260509081627 93 318 1.7 1.7 0.00 0.00 0.00 59 1007.1
20260509081125 95 143 3.5 3.5 0.00 0.00 0.00 58 1007.2
20260509080623 95 200 0.0 1.7 0.00 0.00 0.00 56 1007.0
20260509080120 95 50 1.7 1.7 0.00 0.00 0.00 56 1007.0
20260509075618 95 17 0.0 0.9 0.00 0.00 0.00 55 1007.0
20260509075115 96 282 0.9 0.9 0.00 0.00 0.00 56 1007.1
20260509074612 96 180 0.9 0.9 0.00 0.00 0.00 55 1006.9
20260509074108 97 166 0.9 1.7 0.00 0.00 0.00 53 1006.9
20260509073606 96 294 0.9 1.7 0.00 0.00 0.00 55 1006.9
20260509073102 97 137 0.9 1.7 0.00 0.00 0.00 55 1007.0
20260509072558 96 247 0.0 0.9 0.00 0.00 0.00 54 1006.6
20260509072055 96 43 2.6 5.2 0.00 0.00 0.00 53 1006.9
20260509071552 97 124 0.0 0.9 0.00 0.00 0.00 53 1006.9
20260509071050 97 48 0.9 2.6 0.00 0.00 0.00 53 1007.0
20260509070547 97 206 0.0 0.0 0.00 0.00 0.00 54 1006.9
20260509070043 96 218 0.9 2.6 0.00 0.00 0.00 55 1007.0
20260509065538 96 149 0.0 0.9 0.00 0.00 0.00 54 1007.1
20260509065035 96 184 0.9 0.9 0.00 0.00 0.00 56 1007.1
20260509064533 96 137 1.7 3.5 0.00 0.00 0.00 58 1007.1
20260509064031 96 195 0.0 2.6 0.00 0.00 0.00 57 1007.2
20260509063531 96 220 0.9 1.7 0.00 0.00 0.00 56 1006.9
20260509063029 96 71 2.6 3.5 0.00 0.00 0.00 55 1007.3
20260509062526 96 165 0.9 1.7 0.00 0.00 0.00 56 1007.2
20260509062024 96 254 0.0 0.9 0.00 0.00 0.00 57 1007.4
20260509061520 97 227 1.7 1.7 0.00 0.00 0.00 54 1007.3
20260509061018 98 22 0.9 2.6 0.00 0.00 0.00 52 1007.3
20260509060515 97 356 0.0 0.9 0.00 0.00 0.00 53 1007.3
20260509060011 96 148 1.7 2.6 0.00 0.00 0.00 54 1007.5
20260509055506 96 205 0.0 1.7 0.00 0.00 0.00 56 1007.4
20260509055003 96 351 0.0 3.5 0.00 0.00 0.00 56 1007.5
20260509054459 96 161 0.9 1.7 0.00 0.00 0.00 54 1007.6
20260509053958 97 310 1.7 2.6 0.00 0.00 0.00 54 1007.8
20260509053455 97 13 0.9 6.1 0.00 0.00 0.00 56 1007.9
20260509052952 97 253 1.7 1.7 0.00 0.00 0.00 54 1007.9
20260509052450 97 254 0.9 1.7 0.00 0.00 0.00 54 1008.0
20260509051948 97 348 0.9 5.2 0.00 0.00 0.00 56 1008.0
20260509051445 97 44 0.9 2.6 0.00 0.00 0.00 54 1008.1
20260509050942 97 22 0.9 1.7 0.00 0.00 0.00 55 1008.2
20260509050438 96 350 0.9 3.5 0.00 0.00 0.00 58 1008.2
20260509045935 97 201 0.9 1.7 0.00 0.00 0.00 56 1008.5
20260509045433 97 63 1.7 2.6 0.00 0.00 0.00 56 1008.3
20260509044929 96 171 1.7 2.6 0.00 0.00 0.00 57 1008.5
20260509044428 97 50 0.0 0.9 0.00 0.00 0.00 56 1008.5
20260509043924 97 72 1.7 3.5 0.00 0.00 0.00 56 1008.5
20260509043420 96 175 0.0 1.7 0.00 0.00 0.00 58 1008.8
20260509042916 97 109 0.9 3.5 0.00 0.00 0.00 57 1008.9
20260509042413 97 305 0.0 2.6 0.00 0.00 0.00 57 1008.9
20260509041909 95 281 0.0 2.6 0.00 0.00 0.00 59 1008.8
20260509041406 96 277 1.7 2.6 0.00 0.00 0.00 59 1009.0
20260509040904 96 13 0.9 2.6 0.00 0.00 0.00 58 1009.1
20260509040402 95 267 0.9 2.6 0.00 0.00 0.00 58 1009.2
20260509035858 95 133 1.7 3.5 0.00 0.00 0.00 59 1009.3
20260509035355 95 154 0.0 0.9 0.00 0.00 0.00 59 1009.3
20260509034852 95 175 2.6 3.5 0.00 0.00 0.00 60 1009.4
20260509034349 95 178 0.9 1.7 0.00 0.00 0.00 60 1009.4
20260509033846 94 157 1.7 6.1 0.00 0.00 0.00 62 1009.3
20260509033344 96 244 1.7 2.6 0.00 0.00 0.00 59 1009.4
20260509032840 95 242 0.0 1.7 0.00 0.00 0.00 62 1009.3
20260509032337 95 228 0.0 0.9 0.00 0.00 0.00 60 1009.6
20260509031836 94 182 0.0 2.6 0.00 0.00 0.00 63 1009.5
20260509031332 96 9 0.9 8.7 0.00 0.00 0.00 62 1009.6
20260509030830 95 60 0.9 2.6 0.00 0.00 0.00 60 1009.6
20260509030328 95 340 1.7 5.2 0.00 0.00 0.00 62 1009.6
20260509025824 96 230 0.0 0.9 0.00 0.00 0.00 59 1009.5
20260509025320 96 346 1.7 1.7 0.00 0.00 0.00 59 1009.7
20260509024815 96 337 0.0 3.5 0.00 0.00 0.00 59 1009.7
20260509024312 96 323 0.9 2.6 0.00 0.00 0.00 58 1009.8
20260509023809 95 220 0.9 0.9 0.00 0.00 0.00 61 1009.8
20260509023306 95 38 0.9 1.7 0.00 0.00 0.00 61 1009.9
20260509022802 95 213 0.0 3.5 0.00 0.00 0.00 62 1009.7
20260509022300 94 18 0.0 1.7 0.00 0.00 0.00 61 1010.2
20260509021757 94 203 0.9 1.7 0.00 0.00 0.00 63 1010.0
20260509021254 94 48 0.9 2.6 0.00 0.00 0.00 61 1010.2
20260509020752 96 5 0.9 1.7 0.00 0.00 0.00 61 1010.1
20260509020249 95 236 0.0 1.7 0.00 0.00 0.00 62 1009.9
20260509015747 95 256 0.0 0.9 0.00 0.00 0.00 61 1010.0
20260509015245 94 353 0.9 1.7 0.00 0.00 0.00 64 1010.2
20260509014741 93 336 0.9 0.9 0.00 0.00 0.00 64 1010.1
20260509014238 94 154 0.0 2.6 0.00 0.00 0.00 65 1010.0
20260509013735 92 252 0.0 0.9 0.00 0.00 0.00 67 1010.4
20260509013230 92 198 0.0 0.9 0.00 0.00 0.00 66 1010.1
20260509012727 92 306 0.9 0.9 0.00 0.00 0.00 66 1010.3
20260509012224 92 152 0.9 1.7 0.00 0.00 0.00 67 1010.4
20260509011721 91 152 0.0 0.9 0.00 0.00 0.00 68 1010.3
20260509011219 91 144 1.7 1.7 0.00 0.00 0.00 68 1010.2
20260509010717 92 34 0.9 2.6 0.00 0.00 0.00 68 1010.3
20260509010212 93 52 0.0 1.7 0.00 0.00 0.00 67 1010.0
20260509005710 93 161 0.0 1.7 0.00 0.00 0.00 66 1010.1
20260509005207 92 193 0.0 0.9 0.00 0.00 0.00 67 1010.0
20260509004702 91 215 0.0 0.9 0.00 0.00 0.00 69 1010.0
20260509004200 91 119 0.0 0.9 0.00 0.00 0.00 71 1010.1
20260509003658 91 220 0.0 0.0 0.00 0.00 0.00 70 1010.3
20260509003155 90 216 0.0 0.0 0.00 0.00 0.00 72 1010.2
20260509002652 90 8 0.0 1.7 0.00 0.00 0.00 72 1010.2
20260509002149 90 267 0.0 0.0 0.00 0.00 0.00 71 1010.2
20260509001647 91 191 0.0 0.9 0.00 0.00 0.00 71 1010.1
20260509001142 90 155 0.0 0.9 0.00 0.00 0.00 71 1010.1
20260509000641 89 139 0.0 0.9 0.00 0.00 0.00 72 1010.0
20260509000137 88 332 0.0 0.9 0.00 0.00 0.00 75 1009.7
20260508235635 87 332 0.0 0.0 0.00 0.00 0.00 78 1009.9
20260508235131 87 268 0.0 0.0 0.00 0.00 0.00 79 1010.0
20260508234629 87 258 0.0 0.9 0.00 0.00 0.00 79 1009.7
20260508234125 86 198 0.0 0.0 0.00 0.00 0.00 81 1009.8
20260508233624 85 274 0.0 0.0 0.00 0.00 0.00 83 1010.0
20260508233122 85 275 0.0 0.0 0.00 0.00 0.00 85 1009.9
20260508232619 85 275 0.0 0.0 0.00 0.00 0.00 85 1009.8
20260508232115 84 142 0.0 0.9 0.00 0.00 0.00 84 1009.8
20260508231613 83 142 0.0 0.0 0.00 0.00 0.00 87 1009.8
20260508231110 83 244 0.0 0.0 0.00 0.00 0.00 87 1009.7
20260508230606 83 221 0.0 0.0 0.00 0.00 0.00 88 1009.6
20260508225601 82 221 0.0 0.0 0.00 0.00 0.00 89 1009.5
20260508225057 82 221 0.0 0.0 0.00 0.00 0.00 90 1009.3
20260508224555 82 221 0.0 0.0 0.00 0.00 0.00 90 1009.2
20260508224052 82 221 0.0 0.0 0.00 0.00 0.00 90 1009.3
20260508223550 81 221 0.0 0.0 0.00 0.00 0.00 91 1009.1
20260508223046 81 221 0.0 0.0 0.00 0.00 0.00 91 1009.2
20260508222544 81 221 0.0 0.0 0.00 0.00 0.00 91 1009.2
20260508222041 81 221 0.0 0.0 0.00 0.00 0.00 92 1009.2
20260508221537 80 221 0.0 0.0 0.00 0.00 0.00 92 1009.1
20260508221033 80 221 0.0 0.0 0.00 0.00 0.00 92 1008.8
20260508220530 80 221 0.0 0.0 0.00 0.00 0.00 92 1008.8
20260508220026 80 221 0.0 0.0 0.00 0.00 0.00 92 1008.8
20260508215523 80 221 0.0 0.0 0.00 0.00 0.00 92 1008.6
20260508215020 80 221 0.0 0.0 0.00 0.00 0.00 92 1008.6
20260508214517 80 221 0.0 0.0 0.00 0.00 0.00 92 1008.5
20260508214013 80 221 0.0 0.0 0.00 0.00 0.00 92 1008.6
20260508213511 80 221 0.0 0.0 0.00 0.00 0.00 92 1008.5
20260508213007 80 221 0.0 0.9 0.00 0.00 0.00 92 1008.5
20260508212503 80 221 0.0 0.0 0.00 0.00 0.00 92 1008.5
20260508211959 80 221 0.0 0.0 0.00 0.00 0.00 92 1008.3
20260508211455 80 221 0.0 0.0 0.00 0.00 0.00 92 1008.4
20260508210952 80 221 0.0 0.0 0.00 0.00 0.00 92 1008.3
20260508210448 80 221 0.0 0.0 0.00 0.00 0.00 92 1008.0
20260508205945 80 221 0.0 0.0 0.00 0.00 0.00 92 1008.3
20260508205442 80 221 0.0 0.0 0.00 0.00 0.00 92 1008.0
20260508204938 80 221 0.0 0.0 0.00 0.00 0.00 92 1008.2
20260508204436 80 231 0.0 0.0 0.00 0.00 0.00 92 1008.0
20260508203931 80 231 0.0 0.0 0.00 0.00 0.00 92 1008.0
20260508203428 80 231 0.0 0.0 0.00 0.00 0.00 92 1008.0
20260508202923 80 232 0.0 0.0 0.00 0.00 0.00 92 1007.8
20260508202421 80 234 0.0 0.0 0.00 0.00 0.00 92 1008.0
20260508201918 80 234 0.0 0.0 0.00 0.00 0.00 92 1007.8
20260508201415 80 234 0.0 0.0 0.00 0.00 0.00 92 1008.1
20260508200911 80 234 0.0 0.0 0.00 0.00 0.00 92 1007.7
20260508200408 80 234 0.0 0.0 0.00 0.00 0.00 91 1007.8
20260508195903 80 234 0.0 0.0 0.00 0.00 0.00 91 1007.8
20260508195401 80 241 0.0 0.0 0.00 0.00 0.00 91 1008.0
20260508194857 80 269 0.0 0.0 0.00 0.00 0.00 91 1008.0
20260508194354 80 269 0.0 0.0 0.00 0.00 0.00 91 1007.8
20260508193851 80 269 0.0 0.0 0.00 0.00 0.00 90 1008.0
20260508193348 80 269 0.0 0.0 0.00 0.00 0.00 90 1007.9
20260508192844 80 269 0.0 0.0 0.00 0.00 0.00 90 1007.8
20260508192341 80 278 0.0 0.0 0.00 0.00 0.00 90 1007.7
20260508191838 80 278 0.0 0.0 0.00 0.00 0.00 90 1007.9
20260508191335 80 278 0.0 0.0 0.00 0.00 0.00 90 1007.9
20260508190832 80 279 0.0 0.0 0.00 0.00 0.00 90 1008.2
20260508190329 80 279 0.0 0.0 0.00 0.00 0.00 90 1008.0
20260508185825 81 280 0.0 0.0 0.00 0.00 0.00 90 1007.8
20260508185323 80 260 0.0 0.0 0.00 0.00 0.00 90 1008.0
20260508184820 80 260 0.0 0.0 0.00 0.00 0.00 90 1007.9
20260508184317 80 260 0.0 0.0 0.00 0.00 0.00 90 1008.0
20260508183814 80 260 0.0 0.0 0.00 0.00 0.00 90 1008.0
20260508183311 80 260 0.0 0.0 0.00 0.00 0.00 90 1008.2
20260508182806 80 260 0.0 0.0 0.00 0.00 0.00 90 1008.0
20260508182306 80 260 0.0 0.0 0.00 0.00 0.00 90 1008.3
20260508181759 80 260 0.0 0.0 0.00 0.00 0.00 90 1008.3
20260508181256 80 260 0.0 0.0 0.00 0.00 0.00 89 1008.3
20260508180753 80 260 0.0 0.0 0.00 0.00 0.00 89 1008.1
20260508180250 81 260 0.0 0.0 0.00 0.00 0.00 89 1008.4
20260508175746 80 260 0.0 0.0 0.00 0.00 0.00 89 1008.3
20260508175242 80 260 0.0 0.0 0.00 0.00 0.00 89 1008.3
20260508174741 81 260 0.0 0.0 0.00 0.00 0.00 89 1008.5
20260508174238 81 259 0.0 0.0 0.00 0.00 0.00 89 1008.4
20260508173734 81 259 0.0 0.0 0.00 0.00 0.00 89 1008.6
20260508173230 81 260 0.0 0.9 0.00 0.00 0.00 88 1008.6
20260508172727 81 260 0.0 0.0 0.00 0.00 0.00 89 1008.4
20260508172224 81 260 0.0 0.0 0.00 0.00 0.00 89 1008.7
20260508171720 81 260 0.0 0.0 0.00 0.00 0.00 89 1008.6
20260508171217 81 261 0.0 0.0 0.00 0.00 0.00 88 1008.5
20260508170714 81 257 0.0 0.0 0.00 0.00 0.00 89 1008.7
20260508170212 81 215 0.0 0.0 0.00 0.00 0.00 89 1008.7
20260508165708 81 215 0.0 0.0 0.00 0.00 0.00 88 1008.8
20260508165206 81 215 0.0 0.0 0.00 0.00 0.00 88 1009.0
20260508164702 81 169 0.0 0.0 0.00 0.00 0.00 88 1008.8
20260508164159 81 169 0.0 0.0 0.00 0.00 0.00 88 1008.8
20260508163657 81 166 0.0 0.0 0.00 0.00 0.00 88 1008.8
20260508163154 81 166 0.0 0.0 0.00 0.00 0.00 87 1008.6
20260508162649 81 170 0.0 0.0 0.00 0.00 0.00 87 1008.9
20260508162146 81 171 0.0 0.0 0.00 0.00 0.00 86 1008.9
20260508161643 81 151 0.0 0.0 0.00 0.00 0.00 87 1009.1
20260508161141 81 151 0.0 0.0 0.00 0.00 0.00 87 1009.1
20260508160639 81 152 0.0 0.0 0.00 0.00 0.00 87 1009.2
20260508160136 81 151 0.0 0.0 0.00 0.00 0.00 87 1009.0
20260508155634 81 150 0.0 0.0 0.00 0.00 0.00 86 1009.0
20260508155130 81 151 0.0 0.0 0.00 0.00 0.00 86 1009.2
20260508154627 81 151 0.0 0.0 0.00 0.00 0.00 86 1009.1
20260508154123 81 127 0.0 0.0 0.00 0.00 0.00 86 1009.3
20260508153621 81 124 0.0 0.0 0.00 0.00 0.00 86 1009.5
20260508153117 81 124 0.0 0.0 0.00 0.00 0.00 85 1009.6
20260508152614 82 118 0.0 0.0 0.00 0.00 0.00 85 1009.4
20260508152109 81 156 0.0 0.0 0.00 0.00 0.00 86 1009.5
20260508151607 82 139 0.0 0.0 0.00 0.00 0.00 86 1009.3
20260508151104 82 44 0.0 0.0 0.00 0.00 0.00 86 1009.5
20260508150601 82 208 0.0 0.0 0.00 0.00 0.00 86 1009.5
20260508150057 82 172 0.0 0.0 0.00 0.00 0.00 86 1009.5
20260508145553 82 164 0.0 0.0 0.00 0.00 0.00 86 1009.3
20260508145050 82 114 0.0 0.0 0.00 0.00 0.00 86 1009.5
20260508144548 82 167 0.0 0.0 0.00 0.00 0.00 86 1009.5
20260508144044 82 167 0.0 0.0 0.00 0.00 0.00 86 1009.7
20260508143542 82 165 0.0 0.0 0.00 0.00 0.00 85 1009.5
20260508143038 82 168 0.0 0.0 0.00 0.00 0.00 85 1009.4
20260508142535 82 178 0.0 0.9 0.00 0.00 0.00 84 1009.5
20260508142032 82 213 0.0 0.0 0.00 0.00 0.00 85 1009.5
20260508141528 82 223 0.0 0.0 0.00 0.00 0.00 86 1009.6
20260508141026 82 224 0.0 0.0 0.00 0.00 0.00 85 1009.7
20260508140523 82 224 0.0 0.0 0.00 0.00 0.00 85 1009.7
20260508140020 82 224 0.0 0.0 0.00 0.00 0.00 85 1009.7
20260508135515 82 229 0.0 0.9 0.00 0.00 0.00 85 1009.8
20260508135012 82 223 0.0 0.0 0.00 0.00 0.00 85 1009.7
20260508134508 82 226 0.0 0.0 0.00 0.00 0.00 85 1009.8
20260508134006 82 173 0.0 0.9 0.00 0.00 0.00 85 1009.5
20260508133503 82 201 0.0 0.0 0.00 0.00 0.00 86 1009.7
20260508132959 82 201 0.0 0.0 0.00 0.00 0.00 86 1009.6
20260508132457 82 201 0.0 0.0 0.00 0.00 0.00 86 1009.6
20260508131954 82 201 0.0 0.0 0.00 0.00 0.00 86 1009.5
20260508131449 82 201 0.0 0.0 0.00 0.00 0.00 86 1009.5
20260508130946 82 201 0.0 0.0 0.00 0.00 0.00 86 1009.6
20260508130444 82 202 0.0 0.0 0.00 0.00 0.00 85 1009.6
20260508125939 82 202 0.0 0.0 0.00 0.00 0.00 85 1009.4
20260508125435 82 206 0.0 0.0 0.00 0.00 0.00 84 1009.4
20260508124933 82 206 0.0 0.0 0.00 0.00 0.00 84 1009.4
20260508124431 82 206 0.0 0.0 0.00 0.00 0.00 84 1009.5
20260508123928 82 197 0.0 0.0 0.00 0.00 0.00 84 1009.3
20260508123427 82 197 0.0 0.0 0.00 0.00 0.00 83 1009.2
20260508122923 82 198 0.0 0.0 0.00 0.00 0.00 83 1009.2
20260508122420 82 202 0.0 0.0 0.00 0.00 0.00 82 1009.2
20260508121917 82 203 0.0 0.0 0.00 0.00 0.00 82 1009.2
20260508121415 82 202 0.0 0.0 0.00 0.00 0.00 82 1009.3
20260508120912 82 214 0.0 0.0 0.00 0.00 0.00 82 1009.3
20260508120410 82 222 0.0 0.0 0.00 0.00 0.00 82 1009.2
20260508115907 82 191 0.0 0.0 0.00 0.00 0.00 82 1009.0
20260508115405 83 189 0.0 0.0 0.00 0.00 0.00 81 1008.9
20260508114901 83 167 0.0 0.0 0.00 0.00 0.00 82 1008.6
20260508114358 83 187 0.0 0.0 0.00 0.00 0.00 83 1008.7
20260508113855 83 183 0.0 0.0 0.00 0.00 0.00 83 1008.4
20260508113353 83 182 0.0 0.0 0.00 0.00 0.00 84 1008.4
20260508112850 83 183 0.0 0.0 0.00 0.00 0.00 83 1008.5
20260508112347 83 181 0.0 0.0 0.00 0.00 0.00 84 1008.4
20260508111843 83 181 0.0 0.0 0.00 0.00 0.00 84 1008.7
20260508111340 83 195 0.0 0.0 0.00 0.00 0.00 83 1008.5
20260508110837 83 186 0.0 0.0 0.00 0.00 0.00 83 1008.4
20260508110335 83 186 0.0 0.0 0.00 0.00 0.00 83 1008.2
20260508105835 83 186 0.0 0.0 0.00 0.00 0.00 84 1008.4
20260508105331 83 186 0.0 0.0 0.00 0.00 0.00 83 1008.2
20260508104828 84 148 0.0 0.0 0.00 0.00 0.00 82 1008.4
20260508104325 84 186 0.0 0.0 0.00 0.00 0.00 82 1008.2
20260508103822 84 186 0.0 0.0 0.00 0.00 0.00 82 1008.2
20260508103319 84 186 0.0 0.0 0.00 0.00 0.00 82 1008.2
20260508102817 84 185 0.0 0.0 0.00 0.00 0.00 82 1008.2